Vertical_Velocity
-1 -1 -0 -1 -3 -0 -3 -0 -2 -2 -0 -1 -2 -1 -1 -2 -2 0 -4 -1 -3 3 -1 -5 -9 -4 -2 -5 -1 1 4 -5 -1 -3 -3 -0 -1 -2 -3 -1 3 3 2 -0 6 6 -1 -1 -1 1 -6 5 6 3
-0 -2 -2 1 -1 -2 -4 0 0 -1 -2 0 -2 -0 -3 -0 -4 1 2 -2 1 -2 -0 -0 -4 -4 2 0 -4 -6 -4 -4 -4 -2 -1 -3 -3 1 -0 -5 -5 0 2 -0 2 0 -1 0 -1 -3 -4 -2 7 8
-1 -1 0 0 1 -3 -1 1 -1 -1 -1 -2 -2 2 -1 -4 -4 -4 -1 -2 -1 -3 -2 2 1 -4 -5 -3 -3 -4 3 1 1 -3 -4 -1 -4 -6 -1 -2 -1 -5 -4 -1 3 3 0 -0 -0 1 1 0 -4 1
-2 -2 -2 -1 1 0 -0 -2 1 -1 1 -1 -1 -0 1 -1 -1 -2 -4 -4 -1 -5 -4 -4 -1 1 -3 -5 -5 -3 -5 -1 -1 -2 -2 -1 1 2 0 -2 -3 -3 0 -4 -4 -3 -2 -3 -2 1 -3 -3 -4 -3
-0 0 -2 -1 1 7 -2 -3 -3 -2 0 0 0 -0 -3 2 -3 2 -2 -3 -4 -3 -3 -2 -3 -2 -1 -1 -2 -5 -2 -4 -1 -2 -2 -2 -2 -2 -2 2 3 4 2 -1 -1 -0 -3 -3 -5 1 5 -3 -5 2
-0 -0 2 -1 2 4 2 -2 -4 -3 -2 2 -1 -0 -3 -2 -5 -2 9 -0 -0 -1 -2 1 -3 -5 -2 0 3 3 -0 -3 -4 -3 -3 -2 -2 -1 2 -1 -2 -0 3 -1 -2 -2 -0 2 -6 -9 -1 -4 2 -0
-0 -1 -0 1 2 4 1 -2 -1 -3 -3 -0 1 3 -3 -1 -3 -3 -5 -6 1 -0 -4 -2 -1 -4 -2 -3 -3 -1 -3 -2 -4 -3 -4 -3 -0 -1 -2 -2 -1 -3 -4 2 7 4 -2 -1 1 -4 -0 -1 -3 -4
-1 1 -0 5 4 4 3 -1 -4 -4 -3 -0 1 1 -1 -1 1 -1 -1 0 -5 -3 -5 -2 0 -6 -3 -4 -5 -2 0 -3 2 -3 -2 -2 -2 -2 -1 2 1 -1 -3 -3 -1 3 5 3 2 2 1 -1 -3 -7
3 3 4 4 8 -1 4 -0 -4 -7 -4 -4 -1 3 0 -3 0 1 -1 -1 -3 -1 1 -1 -3 -3 -1 1 -4 -2 -0 -1 3 -2 0 1 -3 -3 -4 -4 -4 -4 -4 -7 -10 -5 -5 -1 1 -1 2 -1 2 2
2 2 3 2 3 -3 4 2 -2 -3 -0 -1 -3 -2 5 5 -0 0 3 -3 -0 0 4 1 3 0 -5 -2 3 -6 -2 -3 -5 2 -4 2 -3 -3 -3 -1 -2 -3 -1 0 -3 -6 -5 -9 -6 -7 -3 -6 -6 -5
3 4 2 2 1 -1 0 1 -1 -5 -2 -4 0 0 -3 0 5 -4 -2 1 -1 -2 2 -0 -2 -7 3 -4 -2 -2 -5 -5 -7 4 -3 -2 2 3 -2 -1 1 0 -2 -1 -4 -4 -3 2 2 1 -6 -7 -4 -3
2 2 2 2 0 -2 3 -2 0 -5 -3 -0 -4 -4 -1 -3 2 3 2 4 -2 -1 1 -0 1 -2 -2 -7 -3 0 -3 -5 -8 -1 -1 -1 -3 0 1 -0 -1 -1 -1 -1 1 -3 -5 -4 -5 -6 -4 -4 -7 -6
6 3 1 2 3 -3 3 0 0 -2 -8 -5 -1 7 -2 2 6 -4 1 2 -1 2 3 1 -5 -6 -3 2 -2 -3 -4 -2 -4 -3 -4 3 -1 3 0 0 2 -0 -1 -2 -4 -3 -1 -6 -4 -1 -7 -5 -5 -7
-0 4 -1 10 9 0 5 -4 -0 -1 -7 -7 -6 -7 -1 10 -1 -1 -0 3 5 0 4 3 1 -10 -4 -9 -1 -2 -7 -5 -9 2 -1 -1 0 2 2 -0 -1 -1 -2 -2 1 -1 -4 -4 -5 -8 -5 -6 -6 -7
2 -1 6 11 -0 2 1 1 -3 4 -6 -6 -7 -2 9 3 5 1 1 -1 -1 1 3 1 -1 2 -3 -5 -3 1 -5 -7 -3 -6 -2 -0 1 2 1 0 0 -2 -4 -3 -3 -4 -2 -3 -4 -5 -7 -5 -5 -7
2 -6 12 3 1 2 4 3 -7 -4 -12 -12 -9 5 7 -3 11 1 3 2 2 -1 4 5 -2 -5 -7 -3 -6 4 -4 10 -10 -3 -1 -3 -0 3 2 -2 -1 -1 -4 -4 -4 -2 -5 -4 -3 -3 -5 -4 -6 -6
-8 6 -0 3 4 3 5 -1 3 -2 -14 -8 -1 3 1 6 2 6 10 10 7 5 5 6 2 -0 -3 -6 8 -2 -0 -4 0 1 1 -1 -0 3 3 -1 -1 -0 -1 -1 -1 -2 -2 -4 -2 -2 -4 -4 -4 -3
6 0 2 6 3 5 4 1 6 -8 -13 4 -2 14 10 11 7 5 6 7 9 10 9 6 3 3 7 7 9 1 -1 -6 -1 -1 -2 1 1 3 2 -1 0 1 1 -2 -1 -2 -1 -3 -2 -2 -2 -4 -4 -3
4 0 2 6 -0 5 3 -11 10 -1 3 1 4 7 2 3 6 4 4 7 8 10 7 1 0 4 11 9 -1 0 -1 -1 1 -2 -2 1 1 -1 -2 -1 -1 0 0 -1 -2 -2 -2 -2 -2 -2 -3 -3 -2 -2
-1 1 3 3 4 7 3 -2 4 -3 -4 6 6 8 -1 0 0 -1 -1 5 4 1 2 1 10 10 8 3 -6 -1 2 1 1 3 3 1 3 1 0 -2 -2 -2 -1 -1 -2 -2 -3 -3 -3 -2 -3 -3 -2 -0
3 5 3 5 5 5 -1 0 2 -5 -1 -4 5 1 2 4 4 4 1 4 -4 5 -1 5 11 -0 1 2 -1 -0 -1 -1 2 3 2 1 -2 -1 -1 -2 -2 -2 -1 -2 -2 -2 -2 -2 -2 -2 -2 -2 -1 -0
1 2 6 8 5 2 1 10 7 5 0 2 -0 2 -4 1 5 5 -4 -4 -2 4 -5 -5 -2 -6 -1 0 1 2 4 5 4 3 1 -0 -1 -1 -0 -0 -1 -1 -1 -2 -2 -1 -2 -1 -1 -1 -1 -0 0 0
2 5 4 3 0 1 0 7 1 8 -4 -4 1 -3 -5 -0 6 4 -4 3 0 1 3 6 9 6 1 -1 2 2 -0 -1 -1 0 -0 0 -1 -0 1 -1 -1 -2 -2 -2 -1 -1 -1 -1 -1 -1 -1 -0 0 1
5 5 -2 -2 9 2 0 -1 1 -0 2 4 3 -3 -4 -0 -3 -0 2 2 0 -3 -1 -2 -2 2 -0 1 3 2 1 1 1 1 1 0 1 0 0 -1 -1 0 1 -0 -0 -1 -1 -1 -1 -1 -1 -0 1 1
-1 -0 0 -2 -4 2 9 8 1 -3 0 1 -0 1 -3 1 -2 -0 1 7 1 1 -1 1 3 1 -1 -1 1 2 2 1 0 -0 0 1 1 1 1 -1 -1 1 0 -0 -1 -1 -1 -2 -2 -1 -0 1 1 0
-3 0 4 6 -1 -3 -0 -0 2 2 0 0 1 1 3 2 5 -5 3 2 2 1 2 1 -1 -1 0 2 1 1 1 1 1 2 0 2 2 1 -0 1 0 -0 1 0 -0 -1 -1 -1 -1 -1 -0 -0 -1 -0
6 -3 -2 3 -2 -6 1 4 -0 -3 -2 -5 -1 -4 -1 -3 -4 2 -1 -1 -0 1 1 0 -0 1 1 2 2 2 1 1 1 1 1 1 -0 -0 -0 -0 -0 0 0 -0 -0 -1 -1 -0 -0 -0 -0 0 -0 -0
0 -1 1 -1 0 3 -2 1 -1 -2 -1 -0 -1 0 -4 -2 -3 -5 -2 -1 -1 -1 -0 -1 0 1 1 1 0 0 0 -0 -0 0 1 0 0 -0 -0 0 -0 -0 -1 -1 -1 -0 0 0 -0 -1 -1 -0 0 0
-0 -1 0 2 -0 -1 1 -1 -0 -1 -3 -3 -2 -2 -4 -3 -2 -0 1 1 2 2 1 1 1 1 0 1 1 1 0 0 1 1 0 -0 -0 -0 -0 -0 -1 -1 -1 -1 -1 -1 0 -1 -1 -0 0 0 -0 -1
-0 -1 0 0 -0 -0 0 -1 -2 -1 -1 0 1 1 2 1 1 2 1 1 1 1 1 1 1 1 1 1 1 0 1 1 0 1 1 1 0 0 0 -1 -1 -1 -1 -2 -1 -1 0 -0 -1 -1 -0 -0 0 0
1 2 0 -0 -1 -1 -0 -0 -1 -0 1 1 1 2 2 3 2 2 2 1 1 2 2 2 1 1 1 1 1 1 0 1 0 0 0 1 0 -0 -0 -1 -1 -1 -1 -1 -0 -0 0 0 -0 -1 -0 0 -0 -0
-0 0 0 -0 -0 -0 0 -1 -0 1 1 1 1 2 1 1 1 1 1 1 1 1 1 0 1 1 2 1 1 1 1 0 0 1 1 1 0 0 -0 -0 -0 -1 -1 -1 -1 -1 -1 -2 -1 0 -0 -1 -1 -1
-3 -2 -1 -1 -1 -0 -0 0 2 0 0 1 1 1 1 1 1 1 1 1 1 1 1 1 1 1 1 1 1 0 1 1 2 2 1 1 0 0 -0 0 -0 -1 1 1 -0 -1 -1 -2 -1 -1 -0 -0 0 1
Height
5736 5731 5727 5722 5716 5709 5702 5697 5691 5684 5677 5670 5662 5654 5647 5641 5634 5627 5621 5615 5610 5604 5598 5593 5588 5583 5578 5573 5569 5564 5560 5554 5549 5543 5536 5530 5526 5526 5528 5530 5532 5535 5539 5542 5544 5546 5549 5550 5553 5556 5560 5563 5564 5566
5726 5722 5718 5714 5709 5702 5694 5689 5683 5677 5670 5663 5656 5648 5641 5635 5629 5623 5617 5611 5606 5602 5597 5591 5586 5581 5576 5572 5567 5563 5558 5554 5550 5545 5540 5534 5529 5525 5524 5525 5528 5531 5531 5533 5536 5537 5539 5542 5544 5546 5548 5551 5552 5553
5717 5712 5708 5705 5701 5695 5687 5680 5675 5669 5662 5655 5649 5642 5634 5628 5623 5617 5612 5607 5603 5598 5595 5589 5584 5579 5574 5570 5566 5563 5557 5553 5549 5546 5542 5537 5531 5526 5523 5522 5522 5524 5525 5526 5527 5528 5528 5531 5533 5536 5538 5539 5540 5542
5707 5703 5698 5695 5690 5685 5679 5670 5666 5661 5655 5648 5640 5633 5627 5620 5615 5610 5605 5601 5597 5593 5590 5586 5581 5576 5571 5567 5563 5560 5556 5551 5547 5544 5541 5538 5534 5529 5524 5520 5518 5517 5518 5518 5519 5520 5520 5519 5520 5523 5524 5526 5528 5529
5696 5692 5689 5685 5680 5675 5668 5661 5656 5651 5646 5639 5631 5624 5619 5612 5607 5603 5598 5594 5590 5588 5584 5581 5577 5573 5568 5564 5560 5556 5552 5548 5544 5540 5537 5535 5532 5529 5526 5522 5518 5515 5512 5510 5510 5510 5509 5508 5508 5510 5511 5511 5513 5515
5684 5679 5676 5672 5668 5662 5657 5650 5645 5641 5636 5630 5624 5617 5609 5604 5599 5597 5593 5587 5583 5579 5576 5574 5570 5567 5563 5559 5555 5551 5548 5544 5540 5537 5533 5530 5528 5526 5523 5520 5517 5513 5510 5507 5505 5502 5499 5496 5494 5495 5496 5495 5495 5496
5672 5667 5662 5660 5656 5650 5644 5638 5633 5628 5624 5619 5614 5608 5599 5593 5589 5587 5585 5581 5576 5572 5569 5566 5563 5560 5557 5554 5551 5547 5543 5539 5535 5532 5528 5525 5521 5519 5516 5513 5511 5508 5505 5502 5499 5495 5492 5489 5485 5481 5478 5478 5478 5477
5658 5654 5650 5648 5644 5638 5632 5626 5620 5616 5612 5608 5602 5597 5589 5584 5580 5578 5574 5570 5567 5565 5561 5558 5555 5553 5550 5546 5543 5540 5537 5534 5529 5525 5522 5519 5515 5512 5509 5505 5502 5500 5496 5494 5491 5487 5484 5480 5476 5472 5468 5465 5461 5457
5644 5640 5637 5634 5631 5623 5620 5613 5609 5604 5600 5596 5591 5586 5580 5574 5571 5569 5565 5562 5559 5558 5553 5550 5546 5543 5541 5538 5535 5533 5529 5526 5523 5519 5515 5511 5507 5503 5500 5497 5493 5490 5487 5483 5480 5477 5473 5469 5465 5461 5457 5452 5448 5442
5630 5626 5622 5618 5614 5607 5606 5601 5598 5592 5588 5584 5580 5575 5571 5565 5563 5560 5557 5554 5551 5548 5544 5542 5538 5535 5533 5529 5526 5524 5521 5517 5514 5512 5506 5503 5498 5494 5491 5487 5483 5480 5476 5472 5468 5465 5460 5456 5452 5446 5441 5436 5431 5425
5615 5611 5606 5603 5598 5594 5593 5589 5585 5579 5578 5573 5570 5566 5560 5557 5554 5549 5548 5545 5542 5539 5536 5533 5530 5528 5524 5521 5517 5513 5510 5507 5504 5502 5496 5493 5488 5484 5480 5477 5472 5468 5464 5460 5456 5452 5448 5443 5438 5433 5426 5420 5413 5407
5599 5595 5591 5588 5583 5580 5578 5574 5570 5566 5565 5561 5557 5554 5550 5546 5544 5541 5538 5534 5530 5529 5526 5524 5521 5518 5515 5512 5509 5505 5501 5497 5494 5490 5485 5482 5479 5473 5469 5465 5461 5456 5452 5447 5443 5439 5435 5430 5424 5418 5412 5406 5399 5391
5583 5580 5578 5574 5569 5566 5563 5559 5555 5553 5551 5549 5547 5544 5541 5537 5534 5531 5529 5525 5521 5518 5515 5513 5511 5509 5505 5502 5499 5495 5490 5486 5483 5479 5474 5470 5465 5461 5457 5453 5449 5444 5439 5435 5430 5425 5420 5415 5410 5404 5397 5390 5383 5375
5571 5568 5565 5560 5557 5550 5548 5545 5543 5540 5538 5536 5534 5533 5530 5527 5524 5521 5518 5516 5512 5509 5506 5503 5499 5496 5493 5489 5486 5482 5478 5474 5469 5467 5462 5456 5451 5447 5443 5439 5435 5431 5426 5421 5416 5410 5406 5401 5395 5390 5384 5376 5367 5359
5555 5552 5549 5548 5540 5536 5533 5531 5530 5527 5525 5524 5523 5521 5521 5517 5514 5511 5507 5504 5502 5499 5495 5491 5486 5483 5480 5475 5472 5468 5463 5459 5456 5451 5447 5443 5437 5433 5429 5424 5421 5417 5412 5407 5402 5397 5391 5386 5381 5375 5369 5362 5354 5346
5539 5537 5538 5530 5526 5524 5522 5518 5515 5514 5512 5510 5510 5512 5509 5506 5504 5499 5495 5491 5488 5486 5482 5477 5471 5466 5463 5460 5457 5454 5449 5445 5439 5435 5432 5428 5423 5418 5414 5410 5406 5402 5398 5394 5388 5383 5377 5371 5366 5360 5354 5348 5342 5334
5524 5528 5522 5518 5515 5513 5509 5506 5502 5499 5495 5496 5499 5499 5497 5495 5492 5489 5484 5481 5476 5472 5467 5461 5455 5450 5445 5441 5440 5436 5433 5429 5424 5421 5416 5412 5408 5404 5400 5395 5391 5388 5384 5379 5374 5369 5363 5357 5352 5346 5341 5335 5329 5323
5514 5511 5509 5507 5504 5501 5497 5495 5488 5482 5483 5487 5486 5486 5482 5479 5476 5473 5469 5465 5460 5454 5449 5444 5438 5434 5430 5427 5424 5420 5416 5412 5410 5406 5402 5397 5393 5389 5385 5381 5377 5373 5369 5364 5359 5354 5349 5343 5339 5334 5328 5323 5318 5312
5500 5500 5497 5495 5489 5486 5481 5479 5477 5471 5470 5470 5470 5469 5465 5462 5459 5455 5451 5447 5443 5437 5431 5426 5421 5420 5416 5411 5406 5404 5401 5398 5394 5390 5386 5382 5379 5374 5370 5366 5362 5359 5354 5350 5345 5340 5334 5330 5325 5320 5315 5310 5305 5301
5484 5484 5483 5480 5475 5471 5466 5462 5459 5455 5456 5455 5452 5448 5443 5442 5438 5434 5431 5428 5424 5419 5415 5412 5409 5403 5398 5393 5391 5390 5387 5383 5379 5376 5371 5367 5363 5359 5356 5352 5348 5344 5339 5334 5329 5324 5319 5314 5310 5305 5300 5295 5291 5288
5469 5469 5466 5464 5461 5456 5449 5445 5442 5440 5437 5435 5433 5429 5424 5421 5418 5415 5412 5409 5405 5404 5400 5397 5391 5385 5382 5379 5376 5374 5371 5368 5365 5360 5357 5352 5349 5345 5341 5337 5332 5328 5323 5319 5313 5308 5303 5298 5293 5288 5283 5279 5276 5274
5455 5452 5450 5447 5443 5439 5436 5432 5426 5424 5419 5416 5412 5408 5405 5403 5400 5397 5392 5388 5388 5387 5382 5378 5374 5370 5368 5365 5362 5359 5356 5353 5350 5346 5342 5338 5334 5330 5325 5321 5317 5312 5308 5303 5297 5292 5286 5280 5275 5270 5266 5263 5262 5261
5438 5437 5434 5431 5426 5422 5422 5417 5412 5407 5400 5398 5394 5390 5388 5386 5384 5380 5375 5373 5370 5368 5365 5362 5359 5355 5354 5352 5349 5346 5343 5340 5336 5332 5328 5323 5319 5315 5310 5306 5302 5297 5292 5286 5280 5274 5268 5263 5258 5254 5252 5250 5249 5249
5421 5420 5419 5417 5414 5409 5404 5400 5397 5393 5389 5384 5379 5376 5373 5371 5368 5366 5363 5359 5355 5351 5349 5347 5345 5343 5341 5338 5335 5332 5329 5325 5321 5317 5313 5309 5305 5300 5296 5291 5286 5281 5275 5268 5263 5257 5252 5248 5244 5241 5239 5238 5237 5238
5410 5407 5405 5402 5399 5397 5392 5387 5382 5379 5376 5372 5368 5364 5360 5356 5353 5351 5349 5345 5341 5338 5336 5334 5332 5330 5327 5324 5321 5317 5313 5310 5307 5303 5299 5295 5290 5285 5280 5275 5270 5264 5258 5252 5247 5242 5238 5234 5231 5228 5227 5227 5227 5227
5395 5393 5392 5386 5383 5383 5379 5375 5371 5368 5363 5359 5355 5349 5344 5340 5337 5334 5334 5329 5326 5323 5321 5319 5318 5316 5313 5310 5306 5303 5300 5296 5292 5288 5283 5279 5274 5269 5265 5259 5254 5248 5243 5238 5234 5230 5226 5222 5219 5218 5217 5216 5216 5217
5382 5379 5378 5375 5371 5369 5366 5363 5359 5355 5351 5347 5342 5336 5330 5325 5322 5321 5317 5314 5312 5309 5307 5305 5303 5300 5298 5295 5291 5288 5284 5280 5276 5272 5267 5263 5258 5254 5249 5243 5239 5235 5231 5226 5222 5218 5215 5212 5210 5209 5208 5207 5207 5208
5370 5367 5366 5363 5360 5357 5354 5351 5348 5344 5341 5337 5332 5326 5321 5317 5314 5310 5307 5304 5301 5298 5295 5292 5289 5286 5283 5279 5275 5271 5268 5264 5260 5256 5252 5248 5243 5238 5234 5230 5227 5223 5219 5215 5212 5208 5205 5203 5201 5200 5199 5199 5200 5200
5359 5357 5355 5351 5349 5346 5343 5340 5337 5333 5329 5324 5320 5314 5310 5305 5302 5298 5295 5292 5288 5285 5281 5277 5274 5270 5266 5263 5259 5256 5252 5249 5245 5241 5237 5233 5229 5226 5223 5220 5217 5213 5210 5206 5202 5199 5197 5195 5193 5192 5192 5192 5192 5192
5349 5347 5345 5342 5339 5336 5333 5329 5325 5321 5316 5311 5306 5301 5296 5291 5287 5283 5279 5276 5272 5269 5265 5261 5258 5254 5251 5248 5244 5241 5238 5234 5230 5227 5224 5221 5219 5217 5214 5211 5208 5205 5201 5197 5194 5191 5189 5187 5185 5184 5184 5184 5184 5184
5342 5340 5337 5333 5329 5325 5320 5316 5311 5306 5300 5295 5290 5285 5281 5276 5271 5267 5264 5260 5256 5253 5249 5246 5242 5239 5235 5232 5229 5226 5223 5221 5218 5216 5214 5212 5210 5208 5206 5204 5201 5197 5194 5191 5188 5185 5182 5180 5178 5177 5177 5176 5176 5177
5333 5329 5325 5321 5316 5312 5307 5302 5296 5290 5285 5279 5275 5270 5265 5261 5257 5253 5249 5245 5241 5238 5235 5231 5228 5225 5222 5220 5217 5215 5212 5210 5208 5207 5205 5204 5202 5201 5199 5196 5194 5191 5188 5185 5182 5179 5176 5174 5172 5170 5169 5168 5169 5169
5322 5319 5314 5310 5305 5300 5295 5290 5284 5279 5274 5268 5263 5259 5254 5249 5245 5241 5237 5233 5230 5226 5223 5220 5217 5214 5212 5210 5207 5205 5203 5201 5200 5198 5197 5195 5194 5193 5191 5188 5186 5184 5181 5179 5177 5174 5171 5169 5166 5164 5162 5161 5161 5162